Location: ?astrovice
(49.6513°N, 14.9287°E)
Time: 08:37:04
(UTC+00:00)

Cosmos 407 Rocket - Pass Details

Date: 09 April 2020
Orbit: 743 x 787 km, 74.1° (Epoch: 25 May)

Event Time Altitude Azimuth Distance (km) Brightness Sun altitude
Rises 19:03:48 0° 208° (SSW) 3,186 6.7 -12.7°
Reaches altitude 10° 19:06:10 10° 211° (SSW) 2,261 6.0 -13.0°
Maximum altitude 19:11:16 71° 295° (WNW) 790 3.7 -13.8°
Drops below altitude 10° 19:16:24 10° 20° (NNE) 2,269 6.1 -14.5°
Sets 19:18:46 0° 23° (NNE) 3,197 6.8 -14.8°
